Location: Eboldshausen
(51.7766°N, 10.0050°E)
Time: 07:31:14
(UTC+00:00)

Cosmos 1812 - Pass Details

Date: 15 November 2025
Orbit: 338 x 348 km, 82.5° (Epoch: 12 December)

Event Time Altitude Azimuth Distance (km) Brightness Sun altitude
Rises 16:26:03 0° 141° (SE) 2,262 5.8 -8.8°
Reaches altitude 10° 16:29:12 10° 104° (ESE) 1,408 4.4 -9.3°
Enters shadow 16:29:20 10° 102° (ESE) 1,392 4.4 -9.3°
